DL6DJ-15 Weather Reports


time (UTC)temp
C
wind
direction
speed
KPH
gust
KPH
rain 1hr
cm
rain 24hr
cm
rain mn
cm
humidity
%
barometer
mb
20260506060238 17 0.0 0.0 0.00 0.00 0.00 57 1008.3
20260506051234 15 0.0 0.0 0.00 0.00 0.00 65 1008.4
20260506050734 14 0.0 0.0 0.00 0.00 0.00 69 1008.4
20260506050233 11 0.0 0.0 0.00 0.00 0.00 78 1008.3
20260506044732 10 0.0 0.0 0.00 0.00 0.00 80 1008.2
20260506044231 9 0.0 0.0 0.00 0.00 0.00 81 1008.4
20260506043731 9 0.0 0.0 0.00 0.00 0.00 80 1008.5
20260506043231 9 0.0 0.0 0.00 0.00 0.00 80 1008.6
20260506042730 8 0.0 0.0 0.00 0.00 0.00 80 1008.7
20260506042230 8 0.0 0.0 0.00 0.00 0.00 80 1008.7
20260506041730 8 0.0 0.0 0.00 0.00 0.00 80 1008.8
20260506041229 8 0.0 0.0 0.00 0.00 0.00 79 1008.7
20260506040728 8 0.0 0.0 0.00 0.00 0.00 80 1008.7
20260506040228 8 0.0 0.0 0.00 0.00 0.00 79 1008.7
20260506035728 8 0.0 0.0 0.00 0.00 0.00 80 1008.6
20260506035228 8 0.0 0.0 0.00 0.00 0.00 79 1008.7
20260506034727 8 0.0 0.0 0.00 0.00 0.00 79 1008.6
20260506034226 8 0.0 0.0 0.00 0.00 0.00 78 1008.6
20260506033726 8 0.0 0.0 0.00 0.00 0.00 79 1008.5
20260506033225 8 0.0 0.0 0.00 0.00 0.00 79 1008.5
20260506032725 8 0.0 0.0 0.00 0.00 0.00 79 1008.4
20260506032225 8 0.0 0.0 0.00 0.00 0.00 80 1008.3
20260506031725 8 0.0 0.0 0.00 0.00 0.00 78 1008.4
20260506031224 8 0.0 0.0 0.00 0.00 0.00 78 1008.4
20260506030724 8 0.0 0.0 0.00 0.00 0.00 77 1008.5
20260506030224 8 0.0 0.0 0.00 0.00 0.00 78 1008.6
20260506025723 8 0.0 0.0 0.00 0.00 0.00 79 1008.7
20260506025223 9 0.0 0.0 0.00 0.00 0.00 78 1008.4
20260506024722 9 0.0 0.0 0.00 0.00 0.00 78 1008.4
20260506024222 9 0.0 0.0 0.00 0.00 0.00 78 1008.5
20260506023722 10 0.0 0.0 0.00 0.00 0.00 76 1008.5
20260506023221 10 0.0 0.0 0.00 0.00 0.00 77 1008.5
20260506022721 10 0.0 0.0 0.00 0.00 0.00 77 1008.5
20260506022220 10 0.0 0.0 0.00 0.00 0.00 77 1008.6
20260506021720 10 0.0 0.0 0.00 0.00 0.00 78 1008.7
20260506021220 10 0.0 0.0 0.00 0.00 0.00 77 1008.8
20260506020719 10 0.0 0.0 0.00 0.00 0.00 77 1008.9
20260506020219 10 0.0 0.0 0.00 0.00 0.00 77 1008.8
20260506015719 10 0.0 0.0 0.00 0.00 0.00 77 1008.8
20260506015218 10 0.0 0.0 0.00 0.00 0.00 77 1008.7
20260506014718 10 0.0 0.0 0.00 0.00 0.00 77 1008.8
20260506014218 10 0.0 0.0 0.00 0.00 0.00 77 1008.8
20260506013717 10 0.0 0.0 0.00 0.00 0.00 77 1008.7
20260506013217 10 0.0 0.0 0.00 0.00 0.00 77 1008.7
20260506012717 11 0.0 0.0 0.00 0.00 0.00 77 1008.7
20260506012216 11 0.0 0.0 0.00 0.00 0.00 76 1008.8
20260506011716 11 0.0 0.0 0.00 0.00 0.00 76 1008.8
20260506011216 12 0.0 0.0 0.00 0.00 0.00 76 1008.8
20260506010715 12 0.0 0.0 0.00 0.00 0.00 76 1008.8
20260506010215 12 0.0 0.0 0.00 0.00 0.00 77 1008.8
20260506005714 12 0.0 0.0 0.00 0.00 0.00 78 1008.8
20260506005214 12 0.0 0.0 0.00 0.00 0.00 78 1008.8
20260506004714 12 0.0 0.0 0.00 0.00 0.00 78 1008.8
20260506004213 12 0.0 0.0 0.00 0.00 0.00 78 1008.7
20260506003713 12 0.0 0.0 0.00 0.00 0.00 78 1008.7
20260506003213 12 0.0 0.0 0.00 0.00 0.00 78 1008.9
20260506002712 12 0.0 0.0 0.00 0.00 0.00 78 1008.9
20260506002212 12 0.0 0.0 0.00 0.00 0.00 78 1009.0
20260506001712 12 0.0 0.0 0.00 0.00 0.00 78 1009.1
20260506001211 12 0.0 0.0 0.00 0.00 0.00 78 1009.1
20260506000711 12 0.0 0.0 0.00 0.00 0.00 79 1009.2
20260506000212 12 0.0 0.0 0.00 0.00 0.00 79 1009.3
20260505235710 12 0.0 0.0 0.00 0.00 0.00 79 1009.2
20260505235210 12 0.0 0.0 0.00 0.00 0.00 79 1009.2
20260505234709 12 0.0 0.0 0.00 0.00 0.00 78 1009.4
20260505234209 12 0.0 0.0 0.00 0.00 0.00 79 1009.3
20260505233708 12 0.0 0.0 0.00 0.00 0.00 79 1009.4
20260505233208 12 0.0 0.0 0.00 0.00 0.00 78 1009.4
20260505232707 12 0.0 0.0 0.00 0.00 0.00 78 1009.3
20260505232207 12 0.0 0.0 0.00 0.00 0.00 77 1009.4
20260505231705 12 0.0 0.0 0.00 0.00 0.00 78 1009.3
20260505231205 12 0.0 0.0 0.00 0.00 0.00 77 1009.3
20260505230705 12 0.0 0.0 0.00 0.00 0.00 77 1009.3
20260505230205 12 0.0 0.0 0.00 0.00 0.00 77 1009.2
20260505225705 12 0.0 0.0 0.00 0.00 0.00 78 1009.2
20260505225204 12 0.0 0.0 0.00 0.00 0.00 78 1009.2
20260505224704 12 0.0 0.0 0.00 0.00 0.00 78 1009.2
20260505224203 12 0.0 0.0 0.00 0.00 0.00 78 1009.2
20260505223703 12 0.0 0.0 0.00 0.00 0.00 79 1009.2
20260505223202 12 0.0 0.0 0.00 0.00 0.00 79 1009.3
20260505222702 12 0.0 0.0 0.00 0.00 0.00 79 1009.2
20260505222202 12 0.0 0.0 0.00 0.00 0.00 78 1009.2
20260505221701 12 0.0 0.0 0.00 0.00 0.00 77 1009.2
20260505221201 12 0.0 0.0 0.00 0.00 0.00 77 1009.2
20260505220700 12 0.0 0.0 0.00 0.00 0.00 77 1009.3
20260505220200 13 0.0 0.0 0.00 0.00 0.00 76 1009.3
20260505215700 13 0.0 0.0 0.00 0.00 0.00 76 1009.2
20260505215159 13 0.0 0.0 0.00 0.00 0.00 76 1009.2
20260505214659 13 0.0 0.0 0.00 0.00 0.00 76 1009.1
20260505214158 13 0.0 0.0 0.00 0.00 0.00 77 1009.3
20260505213658 13 0.0 0.0 0.00 0.00 0.00 78 1009.2
20260505213158 13 0.0 0.0 0.00 0.00 0.00 78 1009.2
20260505212657 13 0.0 0.0 0.00 0.00 0.00 77 1009.2
20260505212157 13 0.0 0.0 0.00 0.00 0.00 78 1009.2
20260505211656 12 0.0 0.0 0.00 0.00 0.00 78 1009.2
20260505211156 12 0.0 0.0 0.00 0.00 0.00 78 1009.2
20260505210656 12 0.0 0.0 0.00 0.00 0.00 79 1009.0
20260505210156 12 0.0 0.0 0.00 0.00 0.00 79 1008.9
20260505205655 12 0.0 0.0 0.00 0.00 0.00 79 1008.8
20260505205155 12 0.0 0.0 0.00 0.00 0.00 79 1008.8
20260505204654 12 0.0 0.0 0.00 0.00 0.00 78 1008.6
20260505204154 13 0.0 0.0 0.00 0.00 0.00 78 1008.6
20260505203654 13 0.0 0.0 0.00 0.00 0.00 78 1008.6
20260505203153 13 0.0 0.0 0.00 0.00 0.00 79 1008.6
20260505202653 13 0.0 0.0 0.00 0.00 0.00 78 1008.6
20260505202152 13 0.0 0.0 0.00 0.00 0.00 79 1008.5
20260505201652 13 0.0 0.0 0.00 0.00 0.00 79 1008.4
20260505201152 13 0.0 0.0 0.00 0.00 0.00 80 1008.4
20260505200651 13 0.0 0.0 0.00 0.00 0.00 79 1008.4
20260505200151 13 0.0 0.0 0.00 0.00 0.00 79 1008.3
20260505195651 13 0.0 0.0 0.00 0.00 0.00 79 1008.1
20260505195150 13 0.0 0.0 0.00 0.00 0.00 79 1008.0
20260505194650 13 0.0 0.0 0.00 0.00 0.00 79 1008.0
20260505194150 13 0.0 0.0 0.00 0.00 0.00 79 1008.0
20260505193649 13 0.0 0.0 0.00 0.00 0.00 79 1007.9
20260505193148 13 0.0 0.0 0.00 0.00 0.00 79 1007.8
20260505192648 13 0.0 0.0 0.00 0.00 0.00 79 1007.8
20260505192148 13 0.0 0.0 0.00 0.00 0.00 79 1007.7
20260505191649 13 0.0 0.0 0.00 0.00 0.00 78 1007.6
20260505191147 13 0.0 0.0 0.00 0.00 0.00 77 1007.6
20260505190647 13 0.0 0.0 0.00 0.00 0.00 76 1007.5
20260505190146 14 0.0 0.0 0.00 0.00 0.00 76 1007.4
20260505185646 14 0.0 0.0 0.00 0.00 0.00 76 1007.4
20260505185146 14 0.0 0.0 0.00 0.00 0.00 75 1007.3
20260505184645 14 0.0 0.0 0.00 0.00 0.00 76 1007.3
20260505184145 14 0.0 0.0 0.00 0.00 0.00 75 1007.2
20260505183645 14 0.0 0.0 0.00 0.00 0.00 74 1007.1
20260505183145 14 0.0 0.0 0.00 0.00 0.00 74 1007.2
20260505182645 14 0.0 0.0 0.00 0.00 0.00 74 1007.0
20260505182144 15 0.0 0.0 0.00 0.00 0.00 73 1007.1
20260505181643 14 0.0 0.0 0.00 0.00 0.00 74 1007.0
20260505181143 14 0.0 0.0 0.00 0.00 0.00 74 1007.1
20260505180642 14 0.0 0.0 0.00 0.00 0.00 74 1006.9
20260505180143 15 0.0 0.0 0.00 0.00 0.00 73 1006.9
20260505175642 15 0.0 0.0 0.00 0.00 0.00 72 1006.9
20260505175141 15 0.0 0.0 0.00 0.00 0.00 71 1006.9
20260505174641 16 0.0 0.0 0.00 0.00 0.00 70 1006.9
20260505174141 16 0.0 0.0 0.00 0.00 0.00 69 1006.8
20260505173641 16 0.0 0.0 0.00 0.00 0.00 69 1006.9
20260505173140 16 0.0 0.0 0.00 0.00 0.00 69 1006.9
20260505172640 16 0.0 0.0 0.00 0.00 0.00 70 1007.0
20260505172139 16 0.0 0.0 0.00 0.00 0.00 70 1007.2
20260505171639 16 0.0 0.0 0.00 0.00 0.00 71 1007.3
20260505171139 15 0.0 0.0 0.00 0.00 0.00 70 1007.3
20260505170639 16 0.0 0.0 0.00 0.00 0.00 69 1007.1
20260505170138 15 0.0 0.0 0.00 0.00 0.00 71 1006.7
20260505165638 15 0.0 0.0 0.00 0.00 0.00 73 1006.8
20260505165138 15 0.0 0.0 0.00 0.00 0.00 71 1006.7
20260505164637 15 0.0 0.0 0.00 0.00 0.00 71 1006.8
20260505164137 15 0.0 0.0 0.00 0.00 0.00 71 1006.9
20260505163636 15 0.0 0.0 0.00 0.00 0.00 70 1006.8
20260505163136 15 0.0 0.0 0.00 0.00 0.00 68 1006.9
20260505162636 16 0.0 0.0 0.00 0.00 0.00 68 1007.0
20260505162135 16 0.0 0.0 0.00 0.00 0.00 67 1006.9
20260505161635 16 0.0 0.0 0.00 0.00 0.00 67 1007.1
20260505161135 16 0.0 0.0 0.00 0.00 0.00 65 1007.0
20260505160634 16 0.0 0.0 0.00 0.00 0.00 66 1006.9
20260505160134 16 0.0 0.0 0.00 0.00 0.00 68 1006.9
20260505153132 18 0.0 0.0 0.00 0.00 0.00 55 1006.5
20260505152632 21 0.0 0.0 0.00 0.00 0.00 53 1006.3
20260505152131 22 0.0 0.0 0.00 0.00 0.00 51 1006.1
20260505151631 23 0.0 0.0 0.00 0.00 0.00 39 1006.0
20260505151130 23 0.0 0.0 0.00 0.00 0.00 35 1005.8
20260505150630 23 0.0 0.0 0.00 0.00 0.00 34 1005.7
20260505150130 23 0.0 0.0 0.00 0.00 0.00 32 1005.6
20260505140625 26 0.0 0.0 0.00 0.00 0.00 27 1005.9
20260505140125 26 0.0 0.0 0.00 0.00 0.00 25 1005.9
20260505130120 28 0.0 0.0 0.00 0.00 0.00 24 1006.5
20260505124618 28 0.0 0.0 0.00 0.00 0.00 25 1006.6
20260505124118 28 0.0 0.0 0.00 0.00 0.00 24 1006.7
20260505123618 27 0.0 0.0 0.00 0.00 0.00 24 1006.7
20260505123117 27 0.0 0.0 0.00 0.00 0.00 25 1006.8
20260505122617 27 0.0 0.0 0.00 0.00 0.00 25 1006.8
20260505122116 27 0.0 0.0 0.00 0.00 0.00 25 1006.8
20260505121616 27 0.0 0.0 0.00 0.00 0.00 24 1006.9
20260505121116 27 0.0 0.0 0.00 0.00 0.00 24 1007.0
20260505120616 27 0.0 0.0 0.00 0.00 0.00 22 1007.0
20260505120115 27 0.0 0.0 0.00 0.00 0.00 23 1007.1
20260505115615 27 0.0 0.0 0.00 0.00 0.00 23 1007.1
20260505115114 29 0.0 0.0 0.00 0.00 0.00 22 1007.2
20260505114614 30 0.0 0.0 0.00 0.00 0.00 21 1007.3
20260505114113 29 0.0 0.0 0.00 0.00 0.00 20 1007.3
20260505113613 30 0.0 0.0 0.00 0.00 0.00 21 1007.2
20260505113113 28 0.0 0.0 0.00 0.00 0.00 23 1007.4
20260505112612 28 0.0 0.0 0.00 0.00 0.00 22 1007.5
20260505112112 28 0.0 0.0 0.00 0.00 0.00 22 1007.6
20260505111611 28 0.0 0.0 0.00 0.00 0.00 23 1007.5
20260505111111 29 0.0 0.0 0.00 0.00 0.00 21 1007.4
20260505110610 29 0.0 0.0 0.00 0.00 0.00 21 1007.7
20260505110110 28 0.0 0.0 0.00 0.00 0.00 23 1007.6
20260505102107 31 0.0 0.0 0.00 0.00 0.00 21 1008.1
20260505101604 30 0.0 0.0 0.00 0.00 0.00 21 1008.2
20260505101103 31 0.0 0.0 0.00 0.00 0.00 22 1008.2
20260505100603 31 0.0 0.0 0.00 0.00 0.00 20 1008.3
20260505095602 32 0.0 0.0 0.00 0.00 0.00 22 1008.3
20260505095101 32 0.0 0.0 0.00 0.00 0.00 22 1008.3
20260505094601 31 0.0 0.0 0.00 0.00 0.00 23 1008.3
20260505094101 30 0.0 0.0 0.00 0.00 0.00 25 1008.5
20260505093600 31 0.0 0.0 0.00 0.00 0.00 24 1008.6
20260505093100 31 0.0 0.0 0.00 0.00 0.00 24 1008.6
20260505092559 32 0.0 0.0 0.00 0.00 0.00 22 1008.7
20260505092059 31 0.0 0.0 0.00 0.00 0.00 22 1008.8
20260505091559 32 0.0 0.0 0.00 0.00 0.00 21 1009.0
20260505091058 32 0.0 0.0 0.00 0.00 0.00 23 1008.9
20260505090558 31 0.0 0.0 0.00 0.00 0.00 23 1008.9
20260505090058 30 0.0 0.0 0.00 0.00 0.00 26 1009.0
20260505085556 29 0.0 0.0 0.00 0.00 0.00 26 1009.1
20260505085056 31 0.0 0.0 0.00 0.00 0.00 23 1009.1
20260505084555 32 0.0 0.0 0.00 0.00 0.00 22 1009.1
20260505084055 33 0.0 0.0 0.00 0.00 0.00 19 1009.1
20260505083555 34 0.0 0.0 0.00 0.00 0.00 19 1009.2
20260505083054 33 0.0 0.0 0.00 0.00 0.00 22 1009.2
20260505082554 32 0.0 0.0 0.00 0.00 0.00 24 1009.0
20260505082054 32 0.0 0.0 0.00 0.00 0.00 24 1009.0
20260505081553 31 0.0 0.0 0.00 0.00 0.00 25 1009.0
20260505081053 31 0.0 0.0 0.00 0.00 0.00 25 1009.2
20260505080553 31 0.0 0.0 0.00 0.00 0.00 24 1009.2
20260505080052 31 0.0 0.0 0.00 0.00 0.00 26 1009.3
20260505075552 30 0.0 0.0 0.00 0.00 0.00 26 1009.3
20260505075052 31 0.0 0.0 0.00 0.00 0.00 24 1009.4
20260505074551 31 0.0 0.0 0.00 0.00 0.00 25 1009.4
20260505074051 31 0.0 0.0 0.00 0.00 0.00 25 1009.5
20260505073550 31 0.0 0.0 0.00 0.00 0.00 24 1009.4
20260505073050 31 0.0 0.0 0.00 0.00 0.00 24 1009.6
20260505072550 31 0.0 0.0 0.00 0.00 0.00 24 1009.6
20260505072049 31 0.0 0.0 0.00 0.00 0.00 26 1009.6
20260505071549 31 0.0 0.0 0.00 0.00 0.00 24 1009.7
20260505071048 31 0.0 0.0 0.00 0.00 0.00 23 1009.7
20260505070548 30 0.0 0.0 0.00 0.00 0.00 26 1009.7
20260505070047 31 0.0 0.0 0.00 0.00 0.00 26 1009.7
20260505065547 31 0.0 0.0 0.00 0.00 0.00 25 1009.7
20260505065047 30 0.0 0.0 0.00 0.00 0.00 26 1009.8
20260505064547 30 0.0 0.0 0.00 0.00 0.00 26 1009.8
20260505064046 30 0.0 0.0 0.00 0.00 0.00 27 1009.9
20260505063545 30 0.0 0.0 0.00 0.00 0.00 26 1009.8
20260505063045 30 0.0 0.0 0.00 0.00 0.00 27 1009.9
20260505062545 29 0.0 0.0 0.00 0.00 0.00 28 1009.9
20260505062045 28 0.0 0.0 0.00 0.00 0.00 30 1009.9
20260505061544 27 0.0 0.0 0.00 0.00 0.00 30 1009.9
20260505061043 26 0.0 0.0 0.00 0.00 0.00 32 1010.1
20260505060543 25 0.0 0.0 0.00 0.00 0.00 34 1010.0